Regional Weather Roundup
Issued by NWS

Home | Current Version | Previous Version | Graphics & Text | Print | Product List | Glossary On
Versions: 1 2 3 4 5 6 7 8 9 10 11 12 13 14 15 16 17 18 19 20 21 22 23 24 25 26 27 28 29 30 31 32 33 34 35 36 37 38 39 40 41 42 43 44 45 46 47 48 49 50
000
ASUS43 KMKX 171821
RWRWI

WISCONSIN REGIONAL WEATHER ROUNDUP
NATIONAL WEATHER SERVICE MILWAUKEE/SULLIVAN WI
1200 PM CST FRI NOV 17 2017

NOTE: "FAIR" INDICATES FEW OR NO CLOUDS BELOW 12,000 FEET WITH NO
SIGNIFICANT WEATHER AND/OR OBSTRUCTIONS TO VISIBILITY.

WIZ001-002-006>008-014>016-023>028-171900-
NORTHWEST WISCONSIN

CITY           SKY/WX    TMP DP  RH WIND       PRES   REMARKS
SUPERIOR ARPT  CLOUDY    33  33 100 CALM      29.69F FOG
6HR MIN TEMP:  33; 6HR MAX TEMP:  35;

ASHLAND        CLOUDY    34  32  92 SW7       29.70F FOG     WCI  28
6HR MIN TEMP:  34; 6HR MAX TEMP:  36;

HAYWARD        MIX PCPN  33  32  96 S6        29.68F FOG     WCI  28
6HR MIN TEMP:  33; 6HR MAX TEMP:  34; 6HR PCP:  0.04;

SIREN          DRIZZLE   34  33  97 S3        29.69S
6HR MIN TEMP:  33; 6HR MAX TEMP:  35; 6HR PCP:  0.04;

CUMBERLAND     DRZL/FOG  32  32 100 SE5       29.67F VSB 1   WCI  27
RICE LAKE      CLOUDY    34  33  96 SE6       29.69F FOG     WCI  29
6HR MIN TEMP:  33; 6HR MAX TEMP:  34;

CHETEK         DRIZZLE   33  33  96 SE7       29.69F WCI  27
LADYSMITH      CLOUDY    35  32  88 S8        29.70F WCI  28
6HR MIN TEMP:  33; 6HR MAX TEMP:  35;

EAU CLAIRE     LGT SNOW  36  33  89 S9        29.68F VSB 3/4 WCI  29
6HR MIN TEMP:  34; 6HR MAX TEMP:  36; 6HR PCP: TRACE;

MENOMONIE      DRZL/FOG  36  36  99 E5        29.68F VSB 1   WCI  32
6HR MIN TEMP:  35; 6HR MAX TEMP:  37;

NEW RICHMOND   DRZL/FOG  35  35  97 S7        29.67F VSB 1   WCI  29
6HR MIN TEMP:  34; 6HR MAX TEMP:  36; 6HR PCP:  0.04;

OSCEOLA        LGT RAIN  36  36 100 CALM      29.69F
6HR MIN TEMP:  34; 6HR MAX TEMP:  37; 6HR PCP:  0.03;

$$

WIZ003>005-009-010-017-018-171900-
NORTH CENTRAL WISCONSIN

CITY           SKY/WX    TMP DP  RH WIND       PRES   REMARKS
MANITOWISH WTR DRIZZLE   32  32 100 S9        29.68F WCI  24
6HR MIN TEMP:  29; 6HR MAX TEMP:  32; 6HR PCP:  0.01;

ARBOR VITAE    MIX PCPN  34  32  94 S10G16    29.69F WCI  26
6HR MIN TEMP:  32; 6HR MAX TEMP:  34; 6HR PCP:  0.02;

WOODRUFF       MIX PCPN  34  32  94 S10G16    29.69F WCI  26
6HR MIN TEMP:  32; 6HR MAX TEMP:  34; 6HR PCP:  0.02;

RHINELANDER    LGT RAIN  33  31  92 S13G20    29.70F FOG     WCI  24
6HR MIN TEMP:  30; 6HR MAX TEMP:  33; 6HR PCP:  0.01;

EAGLE RIVER    MIX PCPN  32  32  99 S6        29.69F WCI  27
6HR MIN TEMP:  29; 6HR MAX TEMP:  32;

LAND O LAKES   MIX PCPN  33  32  96 S9G16     29.70F WCI  25
6HR MIN TEMP:  30; 6HR MAX TEMP:  33;

PHILLIPS       DRIZZLE   32  32 100 S9        29.68F WCI  24
6HR MIN TEMP:  30; 6HR MAX TEMP:  32;

TOMAHAWK       DRIZZLE   32  30  92 S5        29.72F WCI  27
6HR MIN TEMP:  30; 6HR MAX TEMP:  32;

MEDFORD        MIX PCPN  32  31  96 S9        29.70F WCI  24
6HR MIN TEMP:  30; 6HR MAX TEMP:  32; 6HR PCP:  0.01;

MERRILL        DRIZZLE   33  32  96 S6        29.73F WCI  28
6HR MIN TEMP:  31; 6HR MAX TEMP:  34;

$$

WIZ029-030-035-036-043>047-171900-
CENTRAL WISCONSIN

CITY           SKY/WX    TMP DP  RH WIND       PRES   REMARKS
WAUSAU         LGT RAIN  35  30  82 SE13      29.72F WCI  26
6HR MIN TEMP:  31; 6HR MAX TEMP:  35; 6HR PCP: TRACE;

MOSINEE        CLOUDY    34  30  86 S14       29.75F WCI  24
MARSHFIELD     LGT RAIN  34  30  85 SE12      29.71F FOG     WCI  25
6HR MIN TEMP:  32; 6HR MAX TEMP:  34; 6HR PCP: TRACE;

STEVENS POINT  CLOUDY    35  28  75 S10       29.78F WCI  27
6HR MIN TEMP:  31; 6HR MAX TEMP:  35;

WAUPACA        CLOUDY    40  31  70 SE10G17   29.81F WCI  33
6HR MIN TEMP:  35; 6HR MAX TEMP:  40;

WAUTOMA        LGT RAIN  37  30  75 S10       29.80F WCI  30
6HR MIN TEMP:  34; 6HR MAX TEMP:  38;

WISC RAPIDS    LGT RAIN  36  30  79 S9        29.76F WCI  29
6HR MIN TEMP:  33; 6HR MAX TEMP:  37; 6HR PCP: TRACE;

CAMP DOUGLAS   DRIZZLE   37  32  81 SE7       29.75F WCI  32
                                      6HR PCP: TRACE;

$$

WIZ011>013-019>022-031-037>040-048>050-171900-
NORTHEAST WISCONSIN

CITY           SKY/WX    TMP DP  RH WIND       PRES   REMARKS
ANTIGO         CLOUDY    33  30  89 S20G30    29.74F WCI  21
6HR MIN TEMP:  29; 6HR MAX TEMP:  33;

SHAWANO        CLOUDY    40  32  72 S10       29.80F WCI  34
6HR MIN TEMP:  34; 6HR MAX TEMP:  40;

OCONTO         CLOUDY    40  34  78 S10G16    29.84F WCI  33
6HR MIN TEMP:  35; 6HR MAX TEMP:  40;

STURGEON BAY   CLOUDY    42  36  79 S17G31    29.86F
6HR MIN TEMP:  36; 6HR MAX TEMP:  42;

GREEN BAY      CLOUDY    41  34  76 S17       29.85F
6HR MIN TEMP:  33; 6HR MAX TEMP:  41;

MANITOWOC      CLOUDY    41  36  82 S21G29    29.88F
6HR MIN TEMP:  39; 6HR MAX TEMP:  41;

APPLETON       CLOUDY    37  28  70 S16G23    29.82F WCI  28
CLINTONVILLE   CLOUDY    37  30  75 S12       29.81F WCI  30
OSHKOSH        CLOUDY    39  30  70 S18G26    29.82F WCI  30
6HR MIN TEMP:  34; 6HR MAX TEMP:  39;

$$

WIZ032>034-041-042-053>061-171900-
SOUTHWEST WISCONSIN

CITY           SKY/WX    TMP DP  RH WIND       PRES   REMARKS
LA CROSSE      CLOUDY    38  35  89 S10G20    29.71F WCI  31
6HR MIN TEMP:  37; 6HR MAX TEMP:  39; 6HR PCP: TRACE;

SPARTA         CLOUDY    37  33  88 S8        29.74F WCI  30
6HR MIN TEMP:  34; 6HR MAX TEMP:  38;

VIROQUA        CLOUDY    34  34 100 S15       29.71F WCI  25
6HR MIN TEMP:  32; 6HR MAX TEMP:  35;

BOSCOBEL       LGT RAIN  37  34  89 VRB6      29.78F FOG     WCI  32
6HR MIN TEMP:  36; 6HR MAX TEMP:  39; 6HR PCP: TRACE;

PRAIRIE DU CHI CLOUDY    37  35  92 SE8       29.76F FOG     WCI  31
6HR MIN TEMP:  34; 6HR MAX TEMP:  37;

PLATTEVILLE    CLOUDY    37  36  96 SE15      29.79F WCI  27
6HR MIN TEMP:  33; 6HR MAX TEMP:  37;

$$

WIZ056-057-062-063-064-067-068-171900-
SOUTH CENTRAL WISCONSIN

CITY           SKY/WX    TMP DP  RH WIND       PRES   REMARKS
REEDSBURG      CLOUDY    37  30  77 S10       29.79F WCI  29
6HR MIN TEMP:  33; 6HR MAX TEMP:  37;

BARABOO/DELLS  CLOUDY    37  29  72 S13G22    29.78F WCI  28
6HR MIN TEMP:  33; 6HR MAX TEMP:  37;

LONE ROCK      LGT RAIN  37  33  85 SE8       29.80F FOG     WCI  31
6HR MIN TEMP:  34; 6HR MAX TEMP:  39; 6HR PCP: TRACE;

MINERAL POINT  CLOUDY    36  36 100 SE15      29.77F WCI  26
MADISON        CLOUDY    38  29  70 S20G31    29.82F WCI  28
6HR MIN TEMP:  33; 6HR MAX TEMP:  38;

MIDDLETON      CLOUDY    39  31  73 S15G21    29.82F WCI  30
6HR MIN TEMP:  34; 6HR MAX TEMP:  39;

WATERTOWN      CLOUDY    38  31  76 S10G17    29.85F WCI  31
6HR MIN TEMP:  33; 6HR MAX TEMP:  38;

MONROE         CLOUDY    36  30  80 S20G25    29.82F WCI  25
JANESVILLE     CLOUDY    39  30  70 SE17G23   29.86F WCI  30
$$

WIZ051-052-058>065-066-070>072-171900-
SOUTHEAST WISCONSIN

CITY           SKY/WX    TMP DP  RH WIND       PRES   REMARKS
MILWAUKEE      CLOUDY    40  33  76 S13G23    29.90F WCI  32
6HR MIN TEMP:  36; 6HR MAX TEMP:  41;

WAUKESHA       NOT AVBL
MILWAUKEE/TIMM CLOUDY    39  28  65 SE12      29.90F WCI  32
RACINE         CLOUDY    40  34  79 S14G23    29.92F WCI  32
6HR MIN TEMP:  36; 6HR MAX TEMP:  40;

BURLINGTON     PTSUNNY   42  35  77 S13       29.88F
6HR MIN TEMP:  36; 6HR MAX TEMP:  42;

KENOSHA        CLOUDY    40  31  70 S10       29.90F WCI  33
6HR MIN TEMP:  35; 6HR MAX TEMP:  40;

FOND DU LAC    CLOUDY    40  29  64 S18       29.83F WCI  31
6HR MIN TEMP:  35; 6HR MAX TEMP:  40;

SHEBOYGAN      CLOUDY    40  36  86 S23G32    29.87F WCI  30
6HR MIN TEMP:  37; 6HR MAX TEMP:  41;

WEST BEND      CLOUDY    37  32  81 S12G18    29.86F WCI  30
JUNEAU         CLOUDY    37  30  77 SE13G21   29.85F WCI  28
6HR MIN TEMP:  33; 6HR MAX TEMP:  37;

$$

LSZ147-162-171900-
LAKE SUPERIOR

STATION/POSITION TIME  TEMP    WIND        PRES    WAVE
                       AIR SEA DIR/SP/G            HT/PER
                 (UTC) (F)     (DEG/KT/KT) (MB)    (FT/S)
DEVILS ISLAND    1800   34     190/  6/  9 1006.0F
SAXON HARBOR     1730   36     210/  7/ 14 1005.4F
$$

LMZ867-665-643>646-171900-
LAKE MICHIGAN

STATION/POSITION TIME  TEMP    WIND        PRES    WAVE
                       AIR SEA DIR/SP/G            HT/PER
                 (UTC) (F)     (DEG/KT/KT) (MB)    (FT/S)
N MID LAKE BUOY  1750



USA.gov is the U.S. government's official web portal to all federal, state and local government web resources and services.